Regional Weather Roundup
Issued by NWS

Home | Current Version | Previous Version | Text Only | Print | Product List | Glossary On
Versions: 1 2 3 4 5 6 7 8 9 10 11 12 13 14 15 16 17 18 19 20 21 22 23 24 25 26 27
000
ASUS46 KPQR 190210
RWROR

OREGON REGIONAL WEATHER ROUNDUP
NATIONAL WEATHER SERVICE PORTLAND OR
700 PM PDT WED OCT 18 2017

NOTE: "FAIR" INDICATES FEW OR NO CLOUDS BELOW 12,000 FEET WITH
NO SIGNIFICANT WEATHER AND/OR OBSTRUCTIONS TO VISIBILITY.

ORZ001>013-190300-
NORTHWEST OREGON


CITY           SKY/WX    TMP DP  RH WIND       PRES   REMARKS
ASTORIA        HVY RAIN  57  53  86 S28G47    29.65F FOG
NEWPORT        CLOUDY    55  54  94 S21G32    29.87F
PORTLAND       CLOUDY    63  53  70 SE8       29.79F
VANCOUVER WA   CLOUDY    64  53  67 VRB5      29.78F
SCAPPOOSE      CLOUDY    61  52  72 SE13      29.75F
HILLSBORO      CLOUDY    62  52  69 S12G20    29.77F
AURORA         CLOUDY    63  53  70 SW10      29.81F
MCMINNVILLE    CLOUDY    62  51  67 S18G28    29.80F
SALEM          CLOUDY    62  50  64 SW12      29.81F
CORVALLIS      MOCLDY    60  51  72 SW13      29.84F
EUGENE         CLOUDY    58  52  80 SW9       29.86F
$$

ORZ021-028-190300-
SOUTHWEST OREGON


CITY           SKY/WX    TMP DP  RH WIND       PRES   REMARKS
NORTH BEND     CLOUDY    59  53  80 S15G22    29.92F
BROOKINGS      LGT RAIN  53  53 100 SE5       30.01F VSB 3/4
ROSEBURG       CLEAR     69  49  48 CALM      29.86S
SEXTON SUMMIT  CLEAR     56  25  30 SW8       29.98S
GRANTS PASS    FAIR      64  30  27 CALM      29.94S
MEDFORD        PTCLDY    67  38  34 W5        29.89S
$$

ORZ014>016-041-190300-
COLUMBIA GORGE


CITY           SKY/WX    TMP DP  RH WIND       PRES   REMARKS
TROUTDALE      CLOUDY    64  53  67 S7        29.79F
HOOD RIVER     MOCLDY    52  50  93 CALM      29.78F FOG
THE DALLES     PTCLDY    59  52  77 NW8       29.75F
$$

ORZ029>031-041-044-049-050-061>064-502-503-505>511-190300-
EASTERN OREGON


CITY           SKY/WX    TMP DP  RH WIND       PRES   REMARKS
MADRAS         MOCLDY    66  61  82 SW16G30   29.85S
REDMOND        PTCLDY    62  26  25 W9        29.87F
BEND           PTCLDY    61  30  31 S12       29.90S
PRINEVILLE     PTCLDY    54  30  40 SW5       29.88F
KLAMATH FALLS  PTCLDY    56  28  34 CALM      29.97S
LAKEVIEW       CLEAR     51  28  41 SE6       30.01S
HERMISTON      CLOUDY    55  50  83 NW6       29.74F
PENDLETON      CLOUDY    61  39  44 SE5       29.76F
JOHN DAY       MOCLDY    61  26  25 SW7       29.90S
MEACHAM        MOCLDY    54  33  45 CALM      29.86F
LA GRANDE      MOCLDY    62  31  31 S13       29.87F
BAKER CITY     MOCLDY    57  29  34 E12       29.92F
BURNS          MOCLDY    53  25  33 S6        29.94F
ROME             N/A     62  16  16 SE14      29.95S
ONTARIO        MOCLDY    53  37  54 W3        29.91F
$$




USA.gov is the U.S. government's official web portal to all federal, state and local government web resources and services.